Flag for Morocco Weather past 2 weeks in Marrakech, Morocco

Now
88 °F

Passing clouds.


Feels Like: 86 °F
Forecast: N/A
Wind: 20 mph from Southwest

Location: Marrakech Airport

Current Time: Jul 6, 2015 at 11:19:24 PM

Latest Report: Jul 6, 2015 at 11:00 PM


Visibility: N/A

Pressure: 30.04 "Hg

Humidity: 33%

Dew point: 55 °F

Location of MarrakechLocation

Historic Weather in Marrakech — Graph

°F

Marrakech temperature yesterday

Maximum temperature yesterday: 106 °F (at 5:00 PM)
Minimum temperature yesterday: 72 °F (at 6:30 AM)
Average temperature yesterday: 88 °F

Past Weeks' High & Low Weather Summary

 TemperatureHumidityPressure
High108 °F (Jul 6, 2:00 PM)100% (Jun 23, 2:00 AM)30.15 "Hg (Jun 23, 2:00 AM)
Low61 °F (Jun 25, 6:00 AM)13% (Jul 6, 1:30 PM)29.92 "Hg (Jul 6, 3:30 PM)
Average82 °F51%30.05 "Hg
* Reported Jun 21 10:00 PM — Jul 6 10:30 PM, Marrakech, Weather by CustomWeather, © 2015

Note: Actual official high and low records may vary slightly from our data, if they occured in-between our weather recording intervals... More about our weather records

Advertising

Marrakech weather history for previous 24 hours

 ConditionsComfort  
Time TempWeatherWind HumidityBarometerVisibility
10:30 PM
Mon, Jul 6
86 °FPartly cloudy.17 mph40%30.07 "HgN/A
10:00 PM86 °FThunderstorms. Partly cloudy.12 mph40%30.09 "HgN/A
9:00 PM93 °FThunderstorms. Partly cloudy.7 mph24%30.09 "HgN/A
8:30 PM93 °FThunderstorms. Partly cloudy.13 mph24%30.09 "HgN/A
8:00 PM95 °FThunderstorms. Partly cloudy.15 mph25%30.04 "Hg4 mi
7:00 PM93 °FBroken clouds.21 mph26%30.01 "Hg4 mi
6:30 PM97 °FSandstorm.14 mph23%29.98 "Hg1 mi
6:02 PM100 °FSandstorm.16 mph21%29.95 "Hg2 mi
5:30 PM104 °FBroken clouds.6 mph16%29.92 "HgN/A
5:00 PM102 °FExtremely hot.15 mph16%29.92 "HgN/A
4:30 PM106 °FScattered clouds.13 mph15%29.92 "HgN/A
4:00 PM106 °FScattered clouds.8 mph14%29.92 "HgN/A
3:30 PM108 °FScattered clouds.6 mph14%29.92 "HgN/A
3:00 PM108 °FScattered clouds.6 mph14%29.95 "HgN/A
2:30 PM108 °FScattered clouds.7 mph14%29.95 "HgN/A
2:00 PM108 °FScattered clouds.8 mph14%29.95 "HgN/A
1:30 PM106 °FScattered clouds.5 mph13%29.95 "HgN/A
1:00 PM106 °FScattered clouds.6 mph14%29.98 "HgN/A
12:30 PM102 °FScattered clouds.7 mph18%29.98 "HgN/A
12:00 PM102 °FScattered clouds.9 mph17%29.98 "HgN/A
11:30 AM102 °FScattered clouds.9 mph18%29.98 "HgN/A
11:00 AM100 °FScattered clouds.8 mph20%30.01 "HgN/A
10:30 AM99 °FScattered clouds.7 mph24%30.01 "HgN/A
10:00 AM97 °FScattered clouds.5 mph25%30.01 "HgN/A
9:30 AM95 °FScattered clouds.5 mph28%30.01 "HgN/A
9:00 AM93 °FScattered clouds.12 mph28%30.01 "HgN/A
8:30 AM91 °FScattered clouds.13 mph32%30.01 "HgN/A
8:00 AM90 °FScattered clouds.13 mph33%30.01 "HgN/A
7:30 AM86 °FScattered clouds.13 mph40%30.01 "HgN/A
7:00 AM86 °FScattered clouds.12 mph38%30.01 "HgN/A
6:30 AM82 °FScattered clouds.8 mph42%30.01 "HgN/A
6:00 AM81 °FScattered clouds.7 mph48%29.98 "HgN/A
5:30 AM81 °FPassing clouds.9 mph45%29.98 "HgN/A
5:00 AM81 °FPassing clouds.8 mph48%29.98 "HgN/A
4:30 AM81 °FPassing clouds.10 mph51%29.98 "HgN/A
4:00 AM81 °FPassing clouds.9 mph48%29.95 "HgN/A
3:30 AM81 °FPassing clouds.6 mph48%29.95 "HgN/A
3:00 AM82 °FPartly cloudy.6 mph45%29.95 "HgN/A
2:30 AM84 °FPartly cloudy.6 mph40%29.95 "HgN/A
2:00 AM88 °FPartly cloudy.1 mph31%29.95 "HgN/A
1:30 AM90 °FPartly cloudy.5 mph29%29.98 "HgN/A
1:00 AM90 °FPartly cloudy.10 mph27%29.98 "HgN/A
12:30 AM90 °FPartly cloudy.17 mph29%30.01 "Hg5 mi
12:00 AM91 °FThunderstorms. Passing clouds.26 mph26%29.98 "Hg4 mi
11:30 PM
Sun, Jul 5
90 °FPassing clouds.32 mph31%30.01 "Hg5 mi
11:00 PM88 °FThunderstorms. Passing clouds.23 mph38%30.07 "Hg5 mi
Weather by CustomWeather, © 2015

See weather overviewHow to use our weather pages